RH
87 98 100 100 93 79 82 82 85 84 77 75 71 67 66 65 70 73 78 83 78 72 87 84 83 85 85 80 80 76 71 74 82 81 82 84 90 89 87 81 81 94 91
99 99 100 100 100 96 80 79 84 86 81 77 76 72 70 69 71 67 71 77 75 79 88 94 85 79 88 88 72 77 74 75 82 82 82 82 88 87 76 79 74 91 92
97 99 99 100 100 100 99 92 79 84 87 81 77 77 71 66 66 70 72 70 67 70 83 88 79 77 78 84 81 76 73 72 81 77 79 81 91 89 83 83 79 87 91
92 96 98 100 100 99 100 100 93 89 85 87 83 80 76 73 68 68 71 79 77 78 86 82 83 81 78 78 80 78 74 74 73 77 76 74 76 85 84 87 78 73 90
81 88 98 100 100 99 100 100 99 96 92 91 85 85 80 81 82 75 70 68 70 72 83 85 82 85 81 78 77 81 78 76 74 68 75 69 66 84 88 89 91 64 87
63 73 85 99 99 99 100 100 99 98 95 93 92 85 77 73 72 73 77 74 71 72 81 82 83 80 83 77 75 78 78 78 76 84 72 70 70 75 87 88 90 76 94
56 62 68 93 98 98 99 100 100 100 95 92 91 90 86 79 75 80 80 81 82 79 79 75 78 84 79 79 75 75 78 80 80 69 62 68 72 83 76 85 86 83 87
53 60 54 60 73 85 91 92 98 100 99 96 92 90 91 89 81 80 80 81 82 82 78 76 74 78 82 80 77 75 77 78 83 76 64 66 78 80 84 85 86 76 83
51 55 59 54 53 63 76 82 86 91 99 100 96 94 87 89 85 79 80 75 78 81 76 75 75 76 80 79 79 77 75 76 82 69 65 65 75 79 83 81 84 78 75
53 54 57 58 50 48 54 66 77 82 90 97 100 95 90 88 86 80 78 84 84 77 80 80 80 76 77 78 80 81 80 78 81 82 68 71 78 80 75 87 79 77 75
52 55 57 57 60 57 48 48 60 72 81 88 96 99 100 99 97 92 91 84 81 76 78 80 80 79 78 78 79 80 80 88 79 76 76 80 79 82 76 81 80 77 79
51 54 58 58 59 61 61 55 48 52 70 82 89 96 99 99 99 100 88 80 82 81 79 80 78 74 78 84 82 81 81 78 79 81 83 83 83 79 81 79 76 77 81
50 53 56 59 60 61 62 67 69 56 56 68 80 90 99 99 98 98 91 92 89 95 92 84 85 80 77 82 83 82 77 78 83 83 87 86 85 81 82 79 77 75 82
44 48 52 55 59 62 63 64 64 68 71 72 72 87 97 98 99 98 100 89 94 82 96 96 85 80 76 84 88 82 83 85 92 86 92 83 80 79 80 77 78 76 86
41 45 50 52 56 59 62 65 64 63 68 74 81 86 90 98 99 99 100 98 92 95 83 99 98 87 81 82 86 90 85 83 88 88 94 92 76 77 79 78 75 78 88
41 44 48 50 55 56 59 65 64 63 68 72 77 80 95 98 100 99 99 100 98 92 90 94 99 99 86 88 88 87 90 90 93 90 98 100 83 76 79 77 78 76 92
41 43 47 48 54 57 58 62 62 64 67 67 69 82 92 93 91 99 100 98 100 98 97 97 98 97 99 83 96 98 99 99 82 85 89 99 97 83 78 81 81 76 76
40 42 46 51 55 59 58 59 58 62 64 63 68 72 86 81 92 92 98 98 100 99 98 93 80 91 98 94 100 98 98 100 99 94 86 92 96 94 94 85 81 82 90
38 41 44 51 58 61 60 58 59 59 60 61 64 69 79 80 88 79 88 94 100 99 100 95 81 90 93 100 99 98 99 94 100 93 90 93 96 97 97 88 74 63 74
36 39 42 50 61 66 64 62 59 58 59 61 63 69 74 79 86 77 82 87 97 99 100 97 74 96 99 100 100 100 99 100 99 91 98 100 100 99 99 92 70 65 68
38 41 46 52 63 71 70 72 68 66 64 61 64 70 72 77 79 88 85 85 88 100 100 99 86 99 99 100 100 100 99 99 99 98 96 100 100 100 99 98 83 84 92
42 49 53 59 67 74 81 81 77 74 66 63 64 70 75 77 78 85 88 91 98 100 99 100 100 100 100 100 98 98 99 99 98 99 99 99 100 99 100 96 98 100 100
49 57 62 68 76 76 90 87 85 78 69 64 74 74 77 79 80 84 93 92 98 100 99 100 99 100 100 100 99 87 99 97 96 97 99 99 100 100 100 100 100 100 100
55 58 65 73 76 79 87 94 99 93 89 86 84 81 82 80 81 84 91 100 92 98 100 99 99 100 100 99 100 96 91 87 96 99 97 99 100 100 100 100 100 99 100
56 56 61 68 72 75 85 92 97 98 96 95 94 90 84 82 86 86 91 100 95 96 97 98 97 99 100 99 98 99 100 89 87 94 99 99 99 100 100 97 100 100 100
51 56 62 63 67 72 80 81 91 97 100 100 98 98 94 95 91 90 96 100 100 96 96 96 100 96 98 100 100 97 95 92 92 91 94 100 99 99 100 99 100 99 100
Wind_Speed
43 43 43 46 16 4 3 5 5 7 4 4 3 2 2 1 1 2 1 1 1 1 1 2 1 2 1 2 2 2 3 3 4 5 6 6 8 10 12 12 12 11 15
36 37 38 43 34 17 8 5 3 5 7 6 6 6 5 5 4 4 4 3 2 1 2 3 2 1 2 2 2 2 2 3 4 5 6 6 7 9 12 11 9 10 13
40 38 36 40 37 24 16 14 10 6 5 5 6 6 5 6 6 6 5 5 5 4 4 3 2 2 3 3 2 4 4 4 4 4 5 5 6 9 12 10 9 10 12
35 37 34 38 36 32 23 14 9 11 10 7 7 6 6 6 6 7 6 6 4 4 4 4 2 3 2 3 3 3 5 6 7 6 4 6 8 9 11 10 11 13 17
32 33 32 35 37 34 27 13 9 9 10 12 10 8 8 9 8 8 8 8 7 6 6 4 4 4 4 4 4 4 4 6 8 8 8 7 7 9 12 12 11 18 17
29 36 35 36 37 35 30 20 12 11 10 9 12 12 9 9 11 11 9 9 8 8 10 9 6 5 6 7 6 6 6 7 7 7 10 9 9 11 14 14 13 18 14
29 36 38 36 36 34 31 28 16 14 11 11 10 11 14 12 11 11 11 10 10 9 9 11 10 7 7 7 7 7 8 9 8 10 9 8 11 10 14 15 15 19 15
29 33 40 39 38 35 31 32 25 21 14 13 13 13 13 14 13 11 10 11 11 11 10 9 10 10 9 9 9 9 8 10 9 11 10 9 10 12 15 17 17 19 15
28 34 40 40 39 36 32 32 29 23 21 14 13 12 12 14 15 13 12 12 12 12 11 11 10 10 11 10 10 11 10 11 11 11 11 11 12 14 17 17 17 19 17
29 32 36 42 41 39 35 34 32 28 22 21 16 13 12 13 17 16 14 11 11 10 10 9 10 10 11 10 10 12 11 10 12 11 10 11 12 13 17 17 19 19 19
31 33 34 35 41 42 39 36 33 32 27 23 21 17 16 13 16 15 12 11 13 11 11 11 10 10 11 11 12 12 11 8 9 11 10 11 13 13 16 17 20 22 20
34 34 35 35 35 37 40 38 36 34 31 29 26 25 21 17 15 15 13 13 13 13 13 13 13 11 11 9 10 12 11 9 9 10 9 11 13 15 17 17 20 23 25
28 32 34 34 33 34 35 34 37 38 36 33 29 28 25 20 17 18 15 12 9 9 9 11 10 10 9 12 12 10 10 11 10 10 9 13 13 15 16 16 19 22 25
29 31 32 33 32 33 32 30 30 33 34 34 33 30 29 26 24 19 23 17 13 12 11 11 11 12 12 10 10 10 9 11 9 9 11 14 13 16 17 16 18 21 28
28 29 31 31 31 32 31 31 29 27 29 32 29 29 30 28 27 24 20 19 16 14 15 15 12 13 12 13 12 11 11 12 10 10 12 14 13 16 17 17 19 20 30
27 30 29 29 30 30 30 29 28 27 30 27 28 31 29 28 29 27 25 19 20 15 15 16 14 13 17 13 14 13 11 10 9 11 13 13 14 15 17 18 17 19 19
26 26 28 29 30 30 28 28 27 26 27 26 28 26 28 28 32 29 28 23 19 20 19 14 17 16 16 18 13 11 10 10 16 17 16 15 15 13 17 17 15 18 25
23 26 27 27 28 30 28 27 26 26 25 25 24 25 27 34 28 32 30 27 23 22 21 19 19 18 16 17 16 19 18 16 12 14 17 16 14 12 17 20 10 2 7
21 23 25 26 28 30 27 27 26 25 24 25 24 25 28 31 30 32 31 30 28 22 23 24 19 19 23 20 21 18 16 17 17 16 17 16 12 14 16 21 21 16 15
19 21 23 25 26 28 25 26 25 25 26 22 25 23 28 28 29 34 33 30 29 28 23 21 22 16 18 19 17 15 14 13 13 16 17 16 16 19 19 24 30 24 18
20 23 24 26 26 28 27 30 30 29 31 27 25 25 27 27 30 32 33 32 30 31 27 19 25 21 20 18 12 6 5 6 11 15 18 17 19 24 24 27 31 28 27
20 21 22 24 25 25 24 24 24 26 25 26 24 28 25 29 28 27 31 32 30 33 29 26 20 21 21 22 9 5 1 3 5 9 13 14 18 24 30 32 34 37 41
17 19 20 21 22 21 23 23 24 23 22 23 30 29 29 29 27 27 28 30 29 30 32 30 28 28 21 26 26 6 2 4 3 2 8 10 14 20 26 38 41 42 45
14 16 17 19 20 20 22 23 23 24 27 27 29 30 33 27 27 26 25 26 33 31 31 31 30 28 25 18 24 23 9 5 3 2 1 5 7 14 18 25 46 45 42
13 15 17 19 20 20 22 21 22 23 24 28 28 31 29 28 27 26 26 27 32 34 32 33 32 29 28 24 24 17 15 9 8 3 2 1 4 9 16 21 39 44 46
13 15 17 18 20 20 21 22 21 24 26 28 29 30 29 32 30 27 28 30 29 34 35 33 33 33 30 28 28 26 24 12 8 5 2 3 5 2 16 15 26 47 45
Wind_Direction
345 353 348 357 339 320 342 340 332 318 314 310 299 294 312 328 310 321 337 3 66 39 12 308 272 248 279 229 190 138 135 125 115 99 84 112 117 130 125 119 108 126 128
334 347 351 1 13 4 335 325 320 329 321 315 314 312 315 316 319 318 325 324 323 317 327 312 253 269 299 286 239 195 170 160 132 125 119 121 138 143 127 113 129 138 141
351 358 13 1 8 22 22 350 329 325 317 302 299 309 310 309 310 315 320 323 322 304 298 313 269 241 279 285 249 222 201 194 162 139 124 140 158 158 142 144 155 135 137
348 356 7 359 8 16 26 28 13 340 316 299 292 289 289 287 293 301 308 313 310 290 285 278 280 263 268 282 253 232 209 216 222 204 191 192 172 182 164 159 152 141 136
351 357 3 3 9 14 18 14 18 1 349 321 305 295 296 297 291 291 295 298 301 295 284 281 275 273 266 260 256 237 213 217 230 224 230 209 200 196 181 165 158 155 139
353 4 6 5 10 11 14 11 3 4 0 339 321 303 294 291 298 298 295 300 303 304 296 290 290 270 269 265 250 249 235 233 230 229 239 220 222 211 194 177 169 159 163
357 3 11 9 11 12 14 14 4 355 343 338 322 302 303 297 289 291 293 297 297 295 296 297 288 285 274 269 262 244 244 248 243 242 244 232 222 217 203 190 178 173 175
2 0 9 12 12 13 14 13 12 8 351 342 333 314 300 294 286 286 294 297 300 297 293 289 285 279 272 268 263 255 253 252 256 259 247 240 233 227 206 201 189 184 176
6 3 3 8 11 12 12 10 11 5 4 352 349 333 302 297 289 282 282 284 288 296 293 287 282 280 275 267 261 260 262 262 247 252 247 244 243 233 212 207 197 195 184
9 7 5 3 6 7 7 5 7 6 1 2 354 339 316 296 283 275 275 289 288 290 294 292 283 274 272 267 262 262 262 256 254 258 258 248 248 238 220 213 206 197 190
11 9 6 5 2 2 3 2 0 359 1 358 0 355 345 331 296 276 262 271 280 287 286 288 286 279 272 266 259 255 255 247 250 250 256 245 248 244 222 223 212 200 196
7 6 5 4 2 359 360 355 359 357 356 356 354 351 348 344 334 293 276 283 286 287 283 285 286 281 272 257 266 258 249 241 244 251 252 258 256 243 226 231 221 207 201
4 4 4 3 2 1 359 354 354 355 350 351 353 350 345 339 332 331 296 286 281 289 293 284 287 282 261 257 254 249 246 244 244 250 248 252 253 238 234 237 231 216 207
5 3 1 2 1 360 357 355 350 350 351 345 346 350 344 339 332 322 325 297 288 285 276 276 273 274 266 258 259 265 265 262 248 259 251 253 253 240 238 240 242 226 212
7 3 1 0 0 357 355 352 351 349 345 344 352 337 344 342 333 326 322 305 286 286 282 275 269 267 266 261 262 258 258 258 266 263 272 269 259 252 240 242 246 236 218
3 1 359 0 359 356 354 351 349 347 344 343 338 343 341 339 331 326 321 307 297 276 278 270 268 266 259 261 259 262 258 261 260 268 280 279 262 259 243 243 247 246 216
2 0 1 358 356 356 353 351 348 345 344 342 340 338 338 336 334 328 319 313 311 278 268 258 267 265 252 257 253 233 245 259 256 265 270 276 271 265 239 236 236 255 248
359 360 358 358 356 355 354 350 346 343 343 340 339 335 338 337 336 328 322 312 307 317 255 256 257 258 254 243 249 250 255 252 243 254 263 272 263 252 220 228 211 2 192
0 358 358 357 356 354 352 350 347 344 342 340 338 339 337 336 333 331 326 313 313 303 278 244 255 256 248 239 245 249 246 249 253 259 262 252 247 223 223 216 202 191 113
360 359 358 357 355 354 351 349 346 345 342 340 336 334 337 336 333 333 327 320 315 306 315 237 249 240 239 237 230 234 243 245 252 259 257 245 229 217 210 198 201 200 187
358 358 359 356 356 356 353 350 346 342 339 336 336 331 333 334 334 333 331 325 318 309 300 306 252 232 229 221 196 193 225 259 255 249 248 246 233 208 205 194 191 191 191
353 353 353 353 352 354 349 344 339 334 332 329 331 332 332 331 331 331 330 330 326 315 303 290 255 224 220 218 191 166 176 255 240 252 246 236 228 212 200 210 199 179 171
349 349 347 347 348 349 346 342 339 338 334 336 333 331 330 329 327 327 328 329 324 322 308 299 315 228 212 215 206 178 144 218 146 250 243 239 225 214 201 191 183 177 170
343 343 343 344 346 345 347 344 342 337 332 330 326 324 325 329 325 324 325 325 325 323 312 302 286 294 216 199 207 215 214 155 174 186 247 245 208 199 187 185 172 167 163
343 343 344 343 342 343 342 341 337 331 326 323 324 323 326 325 326 323 322 323 325 323 317 307 302 295 245 210 205 199 214 199 215 138 155 178 172 166 164 162 159 159 155
339 342 341 340 339 339 338 336 333 328 326 324 323 323 322 322 322 322 322 320 317 322 319 313 304 293 296 230 210 204 198 188 189 173 130 107 127 101 138 147 142 149 148